Flag for Germany Weather past 2 weeks in Stendal, Saxony-Anhalt, Germany

Now
48 °F

Overcast.


Feels Like: 48 °F
Forecast: 51 / 62 °F
Wind: 2 mph from Southwest

Location: Magdeburg

Current Time: Sep 24, 2014 at 7:30:03 AM

Latest Report: Sep 24, 2014 at 7:00 AM


Visibility: 16 mi

Pressure: 29.99 "Hg

Humidity: 86%

Dew point: 44 °F

Location of StendalLocation

Historic Weather in Stendal — Graph

°F

Stendal temperature yesterday

Maximum temperature yesterday: 60 °F (at 4:00 PM)
Minimum temperature yesterday: 48 °F (at 7:00 AM)
Average temperature yesterday: 53 °F

Past Weeks' High & Low Weather Summary

 TemperatureHumidityPressure
High77 °F (Sep 17, 5:00 PM)98% (Sep 13, 7:00 AM)30.19 "Hg (Sep 13, 7:00 AM)
Low48 °F (Sep 24, 6:00 AM)43% (Sep 17, 6:00 PM)29.87 "Hg (Sep 22, 11:00 AM)
Average61 °F84%30.03 "Hg
* Reported Sep 9 6:00 AM — Sep 24 6:00 AM, Stendal, Weather by CustomWeather, © 2014

Note: Actual official high and low records may vary slightly from our data, if they occured in-between our weather recording intervals... More about our weather records

Advertising

Stendal weather history for previous 24 hours

 ConditionsComfort  
Time TempWeatherWind HumidityBarometerVisibility
6:00 AM
Sep 24
48 °FOvercast.2 mph86%30.01 "Hg16 mi
5:00 AM49 °FOvercast.2 mph84%30.01 "Hg13 mi
4:00 AM51 °FOvercast.2 mph81%30.04 "Hg14 mi
3:00 AM51 °FOvercast.1 mph84%30.04 "Hg12 mi
2:00 AM52 °FOvercast.3 mph80%30.05 "Hg14 mi
1:00 AM52 °FOvercast.2 mph79%30.06 "Hg13 mi
12:00 AM52 °FOvercast.3 mph75%30.07 "Hg15 mi
10:00 PM
Sep 23
49 °FOvercast.1 mph85%30.09 "Hg9 mi
9:00 PM49 °FPassing clouds.1 mph88%30.10 "Hg9 mi
8:00 PM50 °FClear.1 mph84%30.10 "Hg16 mi
7:00 PM54 °FPassing clouds.1 mph70%30.09 "Hg28 mi
6:00 PM58 °FPartly sunny.2 mph59%30.09 "Hg28 mi
4:00 PM60 °FScattered clouds.3 mph49%30.11 "Hg37 mi
3:00 PM59 °FPartly sunny.2 mph53%30.12 "Hg37 mi
2:00 PM58 °FPartly sunny.2 mph51%30.14 "Hg37 mi
1:00 PM56 °FPartly sunny.2 mph55%30.14 "Hg37 mi
12:00 PM55 °FPartly sunny.3 mph60%30.14 "Hg28 mi
11:00 AM53 °FPartly sunny.2 mph74%30.14 "Hg22 mi
10:00 AM51 °FOvercast.2 mph81%30.13 "Hg16 mi
9:00 AM49 °FOvercast.2 mph83%30.12 "Hg16 mi
8:00 AM48 °FOvercast.3 mph85%30.11 "Hg16 mi
7:00 AM48 °FOvercast.2 mph87%30.09 "Hg19 mi
Weather by CustomWeather, © 2014

See weather overviewHow to use our weather pages